Mount Airy, NC

8:06 AM EST on November 22, 2017 (GMT -0500)
Mount Airy-Surry County

Weather History for KMWK - March, 2013

Change the Weather History Date:

Sunday, March 10, 2013

  Actual Average (KINT) Record (KINT)
Temperature  
Mean Temperature 49 °F -  
Max Temperature 67 °F 55 °F 83 °F (1974)
Min Temperature 32 °F 37 °F 18 °F (1984)
Degree Days  
Heating Degree Days 16    
Moisture  
Dew Point 28 °F    
Average Humidity 45    
Maximum Humidity 79    
Minimum Humidity 23    
Precipitation  
Precipitation 0.00 in - - ()
Sea Level Pressure  
Sea Level Pressure 30.22 in    
Wind  
Wind Speed 2 mph (SSE)    
Max Wind Speed 12 mph    
Max Gust Speed 16 mph    
Visibility 10 miles    
Events      
Averages and records for this station are not official NWS values.
T = Trace of Precipitation, MM = Missing Value Source: NWS Daily Summary

Daily Weather History Graph

Daily Weather History Graph

Search for Another Location

Airport or City:

Trip Planner

Search our weather history database for the weather conditions in past years. The results will help you decide how hot, cold, wet, or windy it might be!

Date:

Astronomy

Mar. 10, 2013 Rise Set
Actual Time 7:39 AM EDT 7:25 PM EDT
Civil Twilight 7:14 AM EDT 7:51 PM EDT
Nautical Twilight 6:44 AM EDT 8:20 PM EDT
Astronomical Twilight 6:14 AM EDT 8:51 PM EDT
Moon 6:37 AM EDT (3/10) 6:31 PM EDT (3/10)
Length of Visible Light 12h 36m
Length of Day
11h 45m
Waning Crescent, 2% of the Moon is Illuminated
Mar 10
Waning Crescent
Mar 11
New
Mar 19
First Quarter
Mar 27
Full
Apr 3
Last Quarter

Hourly Weather History & Observations

Time (EDT) Temp. Windchill Dew Point Humidity Pressure Visibility Wind Dir Wind Speed Gust Speed Precip Events Conditions
12:15 AM 38.3 °F 35.9 °F 22.1 °F 52% 30.28 in 10.0 mi NNE 3.5 mph - N/A   Clear
12:35 AM 37.4 °F - 21.9 °F 54% 30.27 in 10.0 mi Calm Calm - N/A   Clear
12:55 AM 36.5 °F - 20.3 °F 52% 30.27 in 10.0 mi Calm Calm - N/A   Clear
1:15 AM 36.0 °F - 21.9 °F 57% 30.27 in 10.0 mi Calm Calm - N/A   Clear
1:35 AM 35.6 °F - 22.1 °F 58% 30.27 in 10.0 mi Calm Calm - N/A   Clear
1:55 AM 34.9 °F - 21.6 °F 58% 30.25 in 10.0 mi Calm Calm - N/A   Clear
3:15 AM 34.5 °F - 22.1 °F 61% 30.25 in 10.0 mi Calm Calm - N/A   Clear
3:35 AM 34.9 °F - 23.4 °F 63% 30.24 in 10.0 mi Calm Calm - N/A   Clear
3:55 AM 35.1 °F - 22.8 °F 61% 30.24 in 10.0 mi Calm Calm - N/A   Clear
4:15 AM 34.3 °F - 22.1 °F 61% 30.23 in 10.0 mi Calm Calm - N/A   Clear
4:55 AM 34.3 °F - 26.2 °F 72% 30.24 in 10.0 mi Calm Calm - N/A   Clear
5:15 AM 33.3 °F - 23.7 °F 68% 30.24 in 10.0 mi Calm Calm - N/A   Clear
5:35 AM 33.1 °F - 22.6 °F 66% 30.24 in 10.0 mi Calm Calm - N/A   Clear
5:55 AM 33.8 °F - 27.9 °F 79% 30.25 in 10.0 mi Calm Calm - N/A   Clear
6:15 AM 33.1 °F - 27.0 °F 78% 30.25 in 10.0 mi Calm Calm - N/A   Clear
6:35 AM 32.5 °F - 26.6 °F 79% 30.24 in 10.0 mi Calm Calm - N/A   Clear
6:55 AM 32.5 °F - 26.2 °F 78% 30.24 in 10.0 mi Calm Calm - N/A   Mostly Cloudy
7:15 AM 32.4 °F - 25.5 °F 76% 30.24 in 10.0 mi Calm Calm - N/A   Scattered Clouds
8:35 AM 37.6 °F - 30.0 °F 74% 30.27 in 10.0 mi Calm Calm - N/A   Clear
8:55 AM 42.4 °F - 33.8 °F 71% 30.27 in 10.0 mi Calm Calm - N/A   Clear
9:15 AM 45.7 °F - 36.5 °F 70% 30.27 in 10.0 mi Calm Calm - N/A   Clear
9:35 AM 48.7 °F - 37.9 °F 66% 30.27 in 10.0 mi Calm Calm - N/A   Clear
9:55 AM 52.5 °F - 35.1 °F 51% 30.28 in 10.0 mi South 3.5 mph - N/A   Clear
10:15 AM 54.1 °F - 34.9 °F 48% 30.28 in 10.0 mi SSE 3.5 mph - N/A   Clear
10:35 AM 54.7 °F - 31.5 °F 41% 30.28 in 10.0 mi South 3.5 mph - N/A   Scattered Clouds
10:55 AM 54.5 °F - 33.4 °F 45% 30.28 in 10.0 mi SE 4.6 mph - N/A   Scattered Clouds
11:15 AM 55.9 °F - 33.1 °F 42% 30.28 in 10.0 mi ESE 5.8 mph - N/A   Scattered Clouds
11:35 AM 58.3 °F - 31.3 °F 36% 30.28 in 10.0 mi South 4.6 mph - N/A   Scattered Clouds
11:55 AM 60.3 °F - 31.6 °F 34% 30.27 in 10.0 mi SSE 6.9 mph - N/A   Clear
12:15 PM 61.3 °F - 32.7 °F 34% 30.27 in 10.0 mi SSE 5.8 mph - N/A   Clear
12:35 PM 62.6 °F - 32.7 °F 33% 30.26 in 10.0 mi SSE 8.1 mph - N/A   Clear
12:55 PM 62.8 °F - 32.4 °F 32% 30.25 in 10.0 mi South 3.5 mph - N/A   Clear
1:15 PM 65.5 °F - 32.4 °F 29% 30.24 in 10.0 mi South 3.5 mph - N/A   Clear
1:35 PM 64.6 °F - 31.6 °F 29% 30.23 in 10.0 mi SE 5.8 mph 9.2 mph N/A   Clear
1:55 PM 65.5 °F - 31.8 °F 28% 30.22 in 10.0 mi South 5.8 mph - N/A   Clear
2:15 PM 66.4 °F - 31.5 °F 27% 30.21 in 10.0 mi South 11.5 mph - N/A   Clear
2:35 PM 66.4 °F - 31.5 °F 27% 30.20 in 10.0 mi SSE 6.9 mph - N/A   Clear
2:55 PM 66.6 °F - 29.5 °F 25% 30.20 in 10.0 mi South 5.8 mph - N/A   Clear
3:15 PM 66.7 °F - 28.9 °F 24% 30.19 in 10.0 mi SSW 3.5 mph 16.1 mph N/A   Clear
3:35 PM 66.6 °F - 27.1 °F 23% 30.18 in 10.0 mi SE 8.1 mph 16.1 mph N/A   Clear
3:55 PM 66.4 °F - 29.1 °F 25% 30.18 in 10.0 mi SSE 6.9 mph - N/A   Clear
4:15 PM 66.6 °F - 27.1 °F 23% 30.18 in 10.0 mi South 5.8 mph - N/A   Clear
4:35 PM 66.7 °F - 27.7 °F 23% 30.18 in 10.0 mi SSW 3.5 mph - N/A   Clear
4:55 PM 65.5 °F - 27.3 °F 24% 30.18 in 10.0 mi South 5.8 mph 16.1 mph N/A   Clear
5:15 PM 64.9 °F - 28.8 °F 26% 30.17 in 10.0 mi South 4.6 mph - N/A   Clear
5:35 PM 65.1 °F - 28.4 °F 25% 30.18 in 10.0 mi South 6.9 mph - N/A   Clear
5:55 PM 65.7 °F - 27.5 °F 24% 30.17 in 10.0 mi SSE 5.8 mph - N/A   Clear
6:15 PM 64.8 °F - 27.5 °F 25% 30.17 in 10.0 mi SE 5.8 mph - N/A   Clear
6:35 PM 62.4 °F - 28.4 °F 28% 30.17 in 10.0 mi SSE 3.5 mph - N/A   Clear
6:55 PM 61.0 °F - 27.9 °F 28% 30.17 in 10.0 mi SSE 3.5 mph - N/A   Clear
7:15 PM 59.0 °F - 28.0 °F 31% 30.17 in 10.0 mi SSE 4.6 mph - N/A   Clear
7:35 PM 58.1 °F - 27.1 °F 31% 30.18 in 10.0 mi SE 3.5 mph - N/A   Clear
7:55 PM 55.4 °F - 27.1 °F 34% 30.18 in 10.0 mi Calm Calm - N/A   Clear
8:15 PM 53.6 °F - 21.9 °F 29% 30.19 in 10.0 mi Calm Calm - N/A   Clear
8:35 PM 51.3 °F - 20.8 °F 30% 30.19 in 10.0 mi Calm Calm - N/A   Clear
8:55 PM 50.2 °F - 26.1 °F 39% 30.19 in 10.0 mi Calm Calm - N/A   Clear
9:15 PM 50.2 °F - 25.5 °F 38% 30.19 in 10.0 mi Calm Calm - N/A   Clear
9:35 PM 49.5 °F - 29.8 °F 47% 30.19 in 10.0 mi Calm Calm - N/A   Clear
9:55 PM 49.1 °F - 27.0 °F 42% 30.20 in 10.0 mi Calm Calm - N/A   Clear
10:15 PM 50.0 °F - 28.4 °F 43% 30.20 in 10.0 mi Calm Calm - N/A   Clear
10:35 PM 50.0 °F - 28.8 °F 44% 30.20 in 10.0 mi SE 3.5 mph - N/A   Clear
10:55 PM 49.1 °F - 28.6 °F 45% 30.19 in 10.0 mi SE 4.6 mph - N/A   Clear
11:15 PM 50.2 °F - 31.8 °F 49% 30.19 in 10.0 mi SE 4.6 mph - N/A   Clear
11:35 PM 50.4 °F - 32.0 °F 49% 30.19 in 10.0 mi SSE 3.5 mph - N/A   Clear
11:55 PM 50.9 °F - 32.0 °F 48% 30.19 in 10.0 mi SSE 4.6 mph - N/A   Clear
12:15 AM 50.5 °F - 31.6 °F 48% 30.18 in 10.0 mi SE 3.5 mph - N/A   Clear
12:35 AM 49.5 °F - 30.2 °F 48% 30.18 in 10.0 mi Calm Calm - N/A   Clear
12:55 AM 48.2 °F - 30.0 °F 49% 30.17 in 10.0 mi SE 3.5 mph - N/A   Clear